Погода в Баттамбанге

Камбоджа     13°05′22″N   103°12′18″E
темп.,
°C
ветер,
м/с
пор.,
м/с
влажн.,
%
обл.,
%
осадки,
мм/ч
давл.,
гПа
погр.,
м
1 марта, пн
пн101:00+26зюз247390 0.0 1010157
04:00+25зюз127982 0.0 101043
07:00+25ю227948 0.0 101298
10:00+32вюв33510 0.0 10141121
13:00+36в223916 0.0 10111943
16:00+31юз665598 0.7 1009687
19:00+27юз467664 5.1 1010174
22:00+27зюз377768 0.4 1013232
2 марта, вт
вт201:00+25зюз358344 0.4 1012142
04:00+25ююз228521 0.0 101165
07:00+24юв348618 1.8 1013177
10:00+30вюв34622 0.4 1014887
13:00+35в244428 0.6 10111748
16:00+32ююз235199 1.0 1009481
19:00+30в125266 1.2 100946
22:00+28ююз12630 0.0 101225
3 марта, ср
ср301:00+26з23790 0.0 101195
04:00+25всв11800 1.3 101124
07:00+25св23800 1.3 1012160
10:00+31юв34570 0.0 1014999
13:00+35вюв34416 0.0 10101927
16:00+36всв443541 0.0 10082137
19:00+29юз696135 0.0 1010271
22:00+27з477593 0.0 1012277
4 марта, чт
чт401:00+26з358256 0.1 1012288
04:00+25зюз11850 0.3 101140
07:00+26юз018216 2.2 101349
10:00+32ююв115523 0.1 10141113
13:00+36вюв023918 0.1 10111966
16:00+36вюв123844 0.0 10082173
19:00+31юз465163 0.0 1010277
22:00+28юз48680 0.0 1011230
5 марта, пт
пт501:00+27з36720 0.0 1011214
04:00+26з23780 0.0 1010140
07:00+26ююз12770 0.0 1012126
10:00+32ююв22530 0.0 10141047
13:00+36ююв23370 0.0 10102012
16:00+37ю23290 0.0 10082177
19:00+31юз48561 0.0 1009332
22:00+28зюз59720 0.0 1012303